Starlink 33548

operational
NORAD ID: 62280 Int'l Des: 2024-237 Owner: SPXS Country: US Constellation: starlink
LEOCIRCULAR

Starlink 33548について

説明を読み込み中...

リアルタイム位置

3D地球を読み込み中...

次回通過

高度履歴

Altitude vs Time

uPlot chart will show altitude changes over time

軌道要素

1 62280U 24237P 25257.97145125 .00017226 00000-0 63403-3 0 9998
2 62280 43.0012 117.8634 0001607 265.4769 94.5900 15.27581039 44447
Epoch: Sep 14, 2025 • Age: 25 hours

現在のステータス

高度 483.8 km
速度 7.63 km/s
衛星直下点 27.25°N, 140.93°E
打ち上げ日 Dec 8, 2024
運用期間 0.7 years
タイプ internet

技術仕様

分類 Payload
質量 530.00 kg
乾燥質量 500.00 kg
総質量 530.00 kg
長さ 0.30 m
直径 4.10 m
スパン 29.00 m
形状 Box + pan
製造者 SPXS
バスタイプ Starlink V2MO
フェーズステータス In Orbit
所有者/国 SPXS/US

大規模コンステレーション

Loading constellations...